Wind_Speed
14 15 15 16 16 16 16 15 16 16 16 16 16 16 16 16 16 15 14 13 12 12 13 13 14 15 15 16 16 18 20 20 17 13 12 10 6 0 1 1 2 3 3 8 9 4 5 3 4 7 5 2 2 3 2 2 1 0 0 1 1 1 2 2 2 2 3 2 0 2 1 3 5 2 5 7 4 5 7 7 9 8 8 13 18 24 25 26
14 14 15 15 16 16 16 16 16 16 17 17 17 17 17 17 16 16 15 13 12 12 13 13 14 15 15 15 15 17 21 20 18 17 12 9 8 5 5 3 3 4 4 9 6 5 6 4 5 7 4 3 2 2 2 1 5 2 1 1 2 0 1 1 4 2 3 3 2 5 3 4 4 6 4 8 2 1 7 6 10 10 8 15 22 26 26 27
15 15 15 15 15 16 16 16 16 17 17 17 17 17 17 17 16 16 15 13 12 11 13 13 14 15 14 15 14 16 18 18 15 9 5 8 8 7 8 7 6 6 8 11 9 9 1 9 8 8 1 5 3 3 5 3 3 2 1 1 1 2 2 3 4 1 2 4 3 7 5 2 2 7 5 7 1 3 8 6 8 10 11 16 21 24 27 28
16 16 15 15 15 15 16 16 17 17 17 17 17 17 17 17 16 16 14 12 11 11 12 12 13 14 14 14 13 14 14 13 7 3 5 4 5 6 7 6 7 8 11 12 15 13 7 9 13 6 4 5 4 6 4 5 1 1 4 2 1 4 3 3 3 2 2 2 2 7 9 7 8 10 7 4 4 2 5 7 8 10 13 16 18 22 25 26
16 16 15 15 15 15 15 16 17 17 17 17 18 18 17 17 16 15 14 12 11 11 11 12 13 13 14 13 12 12 10 6 3 7 3 1 3 5 6 6 7 8 11 15 16 13 3 7 7 4 2 3 4 5 4 5 2 3 4 2 3 3 2 3 3 1 2 4 4 6 4 4 8 6 7 4 2 1 3 7 10 11 13 14 17 20 21 23
16 15 15 15 15 15 15 16 17 17 17 17 17 17 17 17 16 15 12 10 10 10 10 11 12 13 14 13 12 9 7 3 5 4 3 3 4 6 7 7 6 7 10 15 16 12 5 2 3 3 4 2 1 3 3 5 4 3 3 4 4 3 2 3 3 2 1 2 2 1 1 3 5 0 3 6 5 1 2 6 10 12 13 14 16 19 19 21
16 15 15 15 15 15 15 16 17 17 17 17 17 17 17 16 15 13 10 9 9 9 9 10 11 13 14 13 9 6 9 4 5 3 4 2 4 7 8 7 6 7 9 13 15 11 5 1 3 3 3 2 5 3 3 4 4 3 2 4 6 3 2 3 3 3 2 2 1 2 1 3 3 1 3 6 4 1 2 4 7 9 13 15 16 18 19 20
15 15 15 15 15 15 15 16 16 17 17 16 16 16 16 15 14 11 9 8 8 8 7 9 10 11 13 11 7 7 9 2 6 3 4 0 5 8 9 7 8 8 11 13 13 9 6 2 1 4 3 1 8 6 4 2 4 5 3 4 7 3 1 2 3 3 2 2 1 3 2 1 1 2 4 6 3 0 1 1 4 6 11 15 16 18 19 19
15 15 15 15 15 15 15 16 16 16 16 16 15 15 15 14 12 9 7 7 7 7 6 8 9 9 10 8 8 7 1 4 5 3 4 3 6 9 9 8 10 10 12 13 11 8 5 4 5 7 9 4 6 7 3 3 4 6 3 4 6 3 2 3 2 2 3 2 1 3 2 1 2 4 5 6 4 1 5 5 3 6 11 13 14 17 18 19
15 15 15 15 15 15 15 15 15 15 14 14 14 15 14 13 10 7 6 6 5 5 5 7 9 9 7 6 9 5 4 5 3 3 2 5 8 9 8 10 10 9 13 11 8 8 7 7 8 8 9 7 5 7 5 3 5 4 5 6 5 4 4 3 3 3 0 2 3 3 3 1 1 4 3 5 6 3 2 4 7 9 12 13 12 16 17 19
16 15 15 15 15 14 14 14 14 14 14 14 14 14 13 10 8 6 5 4 4 5 5 6 8 8 8 8 9 3 4 3 2 2 3 6 8 10 9 10 7 8 11 9 7 7 7 8 10 8 6 7 9 10 6 4 4 2 4 6 1 1 3 1 3 4 2 2 3 3 4 5 3 3 4 5 7 7 5 3 2 9 11 13 13 14 15 16
16 16 16 15 14 14 14 13 13 13 13 14 14 13 12 9 6 5 4 3 3 4 4 6 6 7 8 8 9 3 4 2 2 0 3 7 9 9 8 7 7 9 10 10 9 6 8 9 10 9 8 9 10 8 5 4 5 2 3 2 3 2 1 1 3 5 4 2 3 3 4 6 7 7 6 6 5 5 5 5 4 5 11 10 13 13 13 15
16 16 15 14 14 13 13 13 12 13 13 13 13 12 9 6 4 4 3 2 2 3 4 5 5 5 7 7 4 0 3 2 2 2 5 7 8 8 7 7 7 9 9 11 12 10 10 10 11 12 10 10 9 7 5 9 10 1 2 4 3 1 2 4 4 5 5 2 3 4 3 2 6 8 7 6 5 4 3 2 2 1 9 10 11 11 13 15
16 15 15 14 13 13 12 12 12 13 13 12 11 10 7 4 3 3 2 2 2 3 4 4 5 3 6 6 1 1 3 3 2 5 7 7 8 8 7 8 7 8 8 9 12 12 10 11 12 11 10 11 8 8 9 8 6 3 2 3 4 4 2 7 5 5 4 2 5 5 3 1 2 5 7 7 7 6 5 2 1 3 5 12 10 11 12 15
15 15 14 14 13 12 12 12 12 12 12 11 9 7 4 3 2 2 2 2 2 4 4 5 5 4 7 7 2 1 3 6 6 8 8 7 10 9 9 9 8 9 8 9 11 11 11 11 11 10 9 12 10 8 10 6 4 5 2 1 4 5 2 7 5 6 5 4 7 6 3 1 1 4 7 7 8 7 6 4 2 2 3 11 9 12 11 12
14 14 13 13 12 12 12 12 12 11 11 9 6 4 3 2 2 2 2 2 3 4 4 4 6 8 6 2 3 1 4 8 9 9 8 8 10 8 7 7 8 9 9 10 12 11 11 11 9 9 9 10 9 7 7 5 4 2 1 2 5 5 2 4 6 8 8 6 8 8 3 3 3 6 8 8 9 9 8 6 3 1 2 9 10 8 11 11
14 13 13 12 11 11 11 11 11 10 9 6 4 3 2 2 2 2 0 1 3 3 6 8 6 8 7 4 1 5 7 6 6 8 7 8 9 4 2 6 8 9 10 11 12 11 11 10 7 8 8 7 7 6 6 5 3 2 0 3 4 6 6 3 7 8 10 9 9 9 6 6 4 5 8 9 10 11 10 8 8 5 2 4 11 9 9 12
14 13 12 11 11 11 11 10 10 8 6 4 2 1 2 2 2 1 2 1 1 4 9 10 9 5 5 6 3 4 5 4 4 6 7 8 8 4 4 9 7 6 9 9 10 10 8 6 6 7 6 7 7 6 7 5 4 4 3 4 5 6 8 2 5 6 9 8 8 9 8 9 6 5 8 10 11 12 11 9 9 8 6 3 8 10 7 10
14 13 12 11 10 10 10 9 8 6 3 1 2 1 1 1 2 4 6 5 4 4 4 6 8 3 2 3 2 4 4 4 4 5 7 8 7 7 8 10 7 6 8 7 8 9 5 5 6 7 6 7 6 5 9 8 7 8 8 8 8 8 9 5 4 4 5 5 7 7 10 9 8 8 9 10 11 11 11 10 8 9 8 5 6 4 7 10
13 12 11 10 9 10 9 8 6 4 4 6 3 3 3 2 3 3 6 9 9 8 5 6 10 6 2 5 4 6 5 5 5 5 8 8 7 8 7 8 8 7 7 8 6 6 4 5 5 7 7 9 11 9 12 11 9 10 10 9 11 9 8 6 1 3 3 2 7 8 9 9 8 10 10 9 9 11 11 11 9 9 10 6 6 4 4 10
12 11 10 9 9 9 8 7 5 4 8 7 0 5 4 5 3 1 1 9 13 13 10 5 5 7 1 2 1 5 6 6 7 6 7 7 7 8 5 6 8 6 7 8 6 2 3 7 7 8 10 11 14 12 12 11 10 11 10 8 10 8 8 8 1 4 4 2 7 10 11 9 7 6 8 9 9 10 10 10 10 10 11 7 6 6 4 4
11 10 9 8 8 8 6 5 4 6 9 6 4 9 6 9 6 5 5 7 10 12 10 5 5 3 2 3 3 6 7 7 8 6 6 6 8 7 4 5 7 6 7 6 5 5 5 8 7 5 7 8 9 10 11 12 11 10 8 8 8 6 9 8 5 7 6 4 5 8 8 7 9 9 6 10 9 8 8 8 8 9 10 8 7 6 5 6
10 9 8 7 7 5 4 4 4 8 11 9 8 11 9 9 8 8 7 7 4 8 9 7 6 5 6 5 4 6 9 6 7 8 7 6 8 6 6 7 6 6 5 5 5 6 6 6 7 8 7 9 8 9 11 11 9 8 7 7 7 7 10 7 1 6 6 6 6 6 6 5 7 6 6 9 6 5 6 7 7 8 10 10 9 8 5 7
9 7 6 5 5 2 2 2 4 8 12 12 14 14 12 9 9 9 7 8 3 7 8 7 7 6 6 2 5 8 8 2 3 8 9 8 8 5 6 7 6 8 6 3 3 6 9 6 9 9 8 10 10 10 10 8 7 8 9 8 7 9 10 9 7 5 3 7 10 9 7 3 5 2 8 5 4 2 5 7 7 7 10 12 10 8 6 6
7 6 4 4 3 2 2 3 6 8 9 13 17 15 11 8 7 8 6 6 4 7 7 8 6 3 5 3 5 7 7 0 3 8 10 9 7 2 3 3 5 6 4 5 4 7 8 5 7 9 10 10 10 8 8 7 6 8 8 9 10 10 11 11 11 4 2 7 3 3 6 3 4 0 9 6 6 5 6 7 7 8 10 12 11 9 8 8
6 5 3 3 2 4 3 2 5 9 10 13 12 7 6 5 6 6 5 5 4 6 7 8 6 4 5 6 8 6 7 4 6 7 7 7 7 6 5 3 4 4 6 5 6 6 5 3 3 5 8 8 9 8 9 7 5 6 6 10 12 12 14 15 14 8 5 7 5 6 8 4 4 3 12 11 10 8 7 8 9 9 9 10 10 10 10 9
5 5 4 5 4 5 3 2 3 6 8 6 3 2 3 4 6 5 5 4 4 7 8 8 6 5 5 7 8 5 2 5 7 7 6 4 4 5 4 5 4 2 2 4 5 1 2 6 3 3 6 7 8 6 7 7 5 5 9 13 15 13 13 14 13 9 7 8 9 11 8 6 6 3 10 11 12 10 11 11 9 7 9 11 11 10 11 11
5 5 6 7 6 7 6 8 9 8 4 4 3 5 4 5 6 4 5 3 3 5 6 6 4 3 4 6 7 6 2 3 4 6 8 5 4 5 5 6 7 4 3 5 5 1 2 6 5 6 7 6 7 8 12 12 8 8 11 13 13 13 12 11 10 8 8 9 8 7 7 6 6 1 4 6 8 9 11 12 8 6 8 9 9 10 10 11
5 6 7 6 7 9 10 10 10 9 8 7 5 6 5 6 6 4 5 3 4 4 3 4 4 6 7 6 7 6 4 6 4 3 7 5 5 6 6 7 9 9 7 7 7 4 2 2 3 7 7 4 9 11 11 10 9 10 12 12 11 11 11 10 9 7 9 9 7 9 9 7 6 3 3 5 6 6 5 8 7 7 7 7 9 10 10 10
6 7 7 7 6 5 7 10 10 8 8 8 7 8 8 7 5 5 5 2 4 4 4 4 4 7 9 8 9 8 7 7 5 4 5 4 6 8 6 8 8 9 9 9 11 10 8 5 3 5 6 5 10 10 9 10 9 9 10 9 9 9 9 8 6 5 7 7 7 10 9 6 7 5 4 3 3 5 2 8 9 9 8 9 10 10 11 10
7 8 8 10 8 3 5 6 4 7 7 8 9 10 9 5 4 6 3 1 3 5 6 6 5 7 9 9 8 9 9 8 7 6 5 5 7 8 6 8 7 7 9 9 9 10 12 12 7 7 5 4 9 8 9 11 11 9 7 6 6 6 6 5 5 3 4 7 8 10 9 7 7 5 5 3 1 2 2 6 7 9 10 8 8 9 9 10
7 9 10 12 11 9 9 5 9 10 8 10 11 8 6 4 6 7 3 3 3 4 4 6 6 6 9 9 7 7 6 5 7 7 6 6 7 7 7 6 2 5 6 6 4 3 8 8 5 8 9 3 6 7 7 7 7 7 7 7 7 6 4 4 5 4 4 7 9 12 10 7 7 5 5 5 3 7 2 4 10 10 9 7 8 9 7 9
8 9 11 12 12 13 12 10 11 10 11 12 10 5 5 5 6 6 4 3 2 3 1 4 4 4 6 7 6 5 3 2 4 7 6 6 6 5 9 7 2 6 5 7 8 4 6 4 7 8 5 3 3 7 7 7 7 8 7 7 7 7 7 6 6 5 5 7 8 11 10 6 5 3 4 7 0 8 5 9 12 8 5 6 7 9 9 10
7 9 10 10 14 16 13 11 10 10 12 11 7 5 6 7 5 3 2 3 5 3 2 3 1 3 4 5 2 3 4 4 4 4 4 4 6 6 6 5 1 6 5 6 7 4 8 5 5 4 2 3 5 8 7 8 10 10 8 7 7 6 6 6 6 7 8 8 7 8 8 6 4 3 4 7 3 7 10 12 11 8 7 3 3 6 9 12
6 9 10 11 15 16 12 11 10 9 10 7 5 6 7 7 4 2 4 2 5 3 4 3 3 5 6 5 2 1 5 5 5 5 4 4 6 4 2 5 6 4 5 5 5 5 9 6 6 3 2 4 9 6 5 7 7 7 7 6 6 5 5 6 7 9 10 9 7 6 5 5 2 1 5 5 2 7 10 12 11 9 7 5 5 5 6 9
4 6 8 12 15 14 11 11 9 8 8 5 6 7 7 7 3 5 6 4 4 3 0 3 5 6 6 6 6 4 4 3 2 4 5 6 7 2 4 6 6 5 6 5 6 6 7 5 5 5 7 7 5 2 5 6 6 6 7 6 8 10 7 6 7 9 9 8 7 5 4 6 4 4 3 3 3 9 13 14 11 8 7 7 6 7 5 5
4 6 8 12 14 12 10 10 9 8 7 5 6 6 6 5 4 5 5 5 4 4 6 4 4 3 5 3 6 8 6 5 4 4 4 6 5 2 2 3 5 6 8 6 5 5 5 8 9 10 10 7 4 1 4 9 8 5 6 7 9 10 6 4 6 6 7 7 6 6 6 6 5 2 7 13 12 14 14 11 9 9 10 9 7 8 9 9
6 8 10 10 12 11 10 11 10 8 5 5 7 8 9 4 5 6 6 6 5 2 5 7 1 1 6 4 3 8 6 4 5 4 5 5 3 5 5 2 5 4 5 7 5 5 6 8 9 9 11 8 4 4 7 9 11 10 6 5 6 6 5 4 5 5 7 7 6 7 8 5 6 6 10 15 13 12 10 7 9 10 11 11 10 11 14 11
9 9 7 8 12 11 11 11 9 7 5 6 7 7 6 3 3 6 6 5 6 4 5 6 2 0 5 4 3 3 3 2 1 2 3 2 2 3 4 3 1 3 3 5 6 6 6 7 7 8 12 8 3 4 7 6 5 5 6 7 5 3 5 5 5 5 6 7 7 8 7 3 7 8 11 14 12 11 10 8 9 9 10 11 10 12 15 13
8 6 3 11 13 12 12 10 7 6 6 7 8 4 1 1 4 5 6 5 4 4 4 7 5 2 3 4 4 2 2 3 4 4 3 1 3 3 5 5 4 5 5 4 7 7 5 6 6 8 11 8 4 5 6 8 8 6 6 7 4 3 5 5 6 5 6 7 6 7 5 3 5 6 10 13 12 12 12 11 9 9 10 11 10 8 13 12
8 6 3 11 13 13 12 8 6 6 6 8 10 4 2 4 3 4 3 4 4 3 2 7 7 4 5 5 3 3 3 3 4 4 3 1 1 2 5 7 5 8 8 6 7 5 3 5 6 7 7 7 9 10 12 13 10 8 7 8 8 7 6 7 7 6 5 6 6 7 5 3 5 7 9 11 12 12 13 14 12 10 11 11 10 6 11 11
8 4 6 13 14 13 9 6 5 6 7 5 4 0 3 3 4 3 1 1 3 2 1 4 6 4 4 4 4 4 4 5 5 2 2 4 5 6 4 6 6 7 7 7 5 7 7 5 7 8 7 9 14 15 14 13 9 8 7 7 7 7 6 7 7 5 5 7 7 8 6 2 5 7 9 10 10 10 13 14 13 13 11 11 11 7 10 12
6 1 8 13 14 12 7 6 6 8 7 3 1 1 3 1 3 2 1 2 2 2 2 2 2 3 4 4 5 4 2 3 5 4 5 5 6 8 5 5 7 7 6 6 3 6 6 5 6 7 7 10 15 14 12 9 3 4 6 4 6 7 7 7 8 7 6 7 7 7 5 1 2 5 6 7 7 7 9 12 12 12 11 10 10 6 7 12
6 2 7 11 13 11 7 7 6 7 6 4 2 1 2 2 4 3 3 2 2 3 3 2 2 2 3 2 4 5 3 2 3 3 5 4 3 5 4 5 6 6 5 5 5 5 4 4 4 6 6 8 9 7 5 4 2 3 6 6 8 10 10 10 8 7 7 6 7 7 6 1 0 4 3 5 7 7 7 9 10 10 10 9 7 5 6 10
7 4 6 8 11 9 7 8 6 10 8 4 4 4 4 3 1 3 6 4 3 5 6 4 3 3 4 2 3 5 4 3 3 1 3 4 1 4 4 5 5 6 4 10 10 7 5 5 5 6 6 7 6 4 4 5 5 6 9 10 11 12 12 11 8 7 6 5 6 6 7 4 4 6 6 7 10 9 8 9 9 9 9 8 5 5 5 6
6 4 5 7 8 7 7 8 8 11 7 3 4 5 6 5 4 2 4 3 1 4 6 4 3 3 4 3 4 6 5 3 2 3 4 5 1 4 4 0 5 3 6 9 8 5 4 6 7 7 8 8 9 9 10 11 9 10 12 13 13 13 12 9 6 6 5 6 6 4 4 8 10 9 8 8 9 10 9 10 10 8 8 8 6 7 5 4
4 5 2 4 5 6 7 8 9 9 4 2 1 3 5 5 4 6 4 2 1 3 4 3 3 5 3 2 5 6 3 1 3 4 4 5 5 3 0 3 2 3 5 3 5 3 4 6 8 10 11 11 13 14 14 13 12 13 15 14 14 14 8 6 5 5 4 6 7 4 3 8 10 10 10 8 7 10 11 10 10 8 8 8 7 8 9 9
4 6 4 0 3 6 6 6 10 9 4 2 0 2 3 6 1 4 5 1 1 3 4 3 3 4 3 4 6 4 1 2 5 3 3 4 5 6 4 4 3 7 2 6 5 4 5 6 7 11 12 13 15 15 15 14 13 13 14 14 17 13 4 7 4 3 4 6 8 8 10 12 10 10 11 10 10 11 11 10 11 10 9 9 7 9 10 11
4 5 5 4 5 4 2 4 6 7 4 3 2 1 4 6 6 3 2 1 2 2 1 4 1 1 2 3 5 5 3 2 2 1 3 5 6 5 6 6 3 7 3 5 2 2 4 5 7 10 12 14 15 14 15 15 13 13 16 17 18 13 2 6 4 5 4 8 9 11 14 12 7 8 9 10 9 9 9 9 10 11 11 10 8 8 11 12
5 6 7 8 8 5 4 4 3 3 1 2 2 5 5 5 6 3 3 2 5 2 2 6 3 3 2 3 3 5 3 3 3 3 4 5 5 3 3 4 2 0 3 5 3 2 2 4 7 8 9 11 13 13 14 14 14 13 14 12 12 13 5 2 5 5 4 8 11 12 14 8 4 6 8 8 8 7 8 10 11 12 12 11 10 10 12 12
10 10 8 8 7 5 4 4 3 4 4 4 3 4 4 3 3 4 2 2 4 3 2 5 3 2 1 2 5 4 3 3 4 6 6 7 6 4 3 3 4 5 6 5 4 4 4 4 7 7 8 9 10 13 13 15 17 12 10 15 15 11 8 6 6 5 5 7 9 10 10 6 4 7 9 9 9 9 9 10 9 10 10 10 11 12 12 12
15 13 11 8 6 4 4 5 4 6 4 2 2 3 1 2 3 3 1 3 2 7 4 4 5 2 4 3 1 3 5 4 6 7 7 7 7 7 6 6 6 6 5 5 6 4 4 5 6 6 7 7 11 15 14 14 14 8 7 13 14 11 10 8 7 7 6 4 5 5 6 6 7 8 9 9 12 11 9 8 6 7 9 8 7 9 11 13
Wind_Direction
327 326 326 326 327 326 326 326 326 326 326 327 326 325 326 326 328 328 330 333 335 328 323 321 317 317 318 318 322 324 320 317 309 279 247 247 267 166 177 32 37 315 267 233 239 251 274 290 356 320 297 240 231 244 303 36 161 224 348 245 93 125 205 195 282 341 358 5 141 275 222 280 293 279 133 118 29 57 97 101 102 91 117 128 129 139 148 148
326 324 323 322 322 322 322 322 323 324 323 324 323 323 323 324 327 327 329 332 332 328 325 322 316 316 315 318 325 325 323 317 293 269 249 231 234 243 260 268 285 298 250 238 230 217 249 25 5 284 285 291 277 252 266 210 214 207 37 343 71 182 181 176 266 328 344 322 333 302 251 197 272 313 56 90 351 153 121 114 114 108 122 128 131 144 152 152
325 323 321 319 318 318 318 319 320 320 320 320 320 320 321 323 325 326 327 329 330 327 324 321 316 313 313 318 323 326 325 310 285 260 214 210 227 247 255 251 248 261 252 241 235 236 84 45 285 257 342 301 334 278 242 152 202 216 92 2 97 175 184 205 248 272 307 319 328 316 311 246 329 335 10 89 90 172 142 135 124 127 140 142 140 149 156 156
324 322 321 319 317 316 316 317 318 318 318 318 319 319 320 322 323 323 324 324 326 325 324 321 317 312 312 316 320 327 321 296 280 108 118 197 227 239 238 223 226 250 261 254 255 256 104 111 250 268 45 298 335 310 281 90 81 68 80 2 128 160 204 203 227 254 289 344 24 357 343 337 11 352 336 87 120 171 160 140 129 147 150 151 150 151 158 160
323 321 320 318 316 315 315 316 317 317 317 317 318 318 319 321 320 321 322 321 322 324 325 320 316 312 310 313 316 321 311 290 106 104 91 294 252 226 211 202 223 250 256 259 265 265 145 148 256 337 13 305 7 322 326 75 65 45 96 139 145 162 231 186 195 243 339 7 42 37 353 351 31 360 327 335 251 207 158 135 137 166 160 156 158 153 160 162
324 322 320 319 316 315 315 315 315 315 316 317 317 317 318 318 316 318 319 319 319 322 325 319 318 312 308 311 310 301 281 304 87 96 15 333 255 203 186 192 222 246 251 267 273 263 239 133 37 342 269 317 152 204 334 28 51 54 121 132 111 130 203 188 186 172 166 24 57 126 171 82 72 155 283 300 280 139 123 136 146 169 161 163 164 156 162 165
324 323 322 320 318 316 316 313 313 314 315 316 317 317 315 314 314 317 317 314 314 321 323 317 316 311 313 314 302 259 250 284 88 85 357 315 214 177 177 186 207 239 248 263 269 270 281 132 126 234 261 327 260 222 80 43 43 63 71 79 90 123 187 184 175 172 179 80 54 259 307 80 102 171 252 278 287 114 151 147 156 165 157 170 169 160 166 167
325 325 324 323 321 318 314 312 314 314 315 317 317 315 313 314 314 314 311 309 312 318 319 315 316 317 326 328 305 250 243 298 87 77 2 167 182 166 170 186 205 233 249 258 270 292 323 319 280 296 319 339 277 297 95 95 30 69 51 69 107 140 135 129 169 151 100 69 342 300 334 34 176 220 237 249 265 318 291 129 156 172 169 179 171 165 170 168
326 326 324 323 320 316 313 314 315 315 318 318 315 314 314 315 313 314 310 307 311 316 317 312 310 317 330 325 294 275 244 61 71 61 36 122 167 166 171 194 206 225 250 261 275 289 313 335 347 332 324 322 270 298 3 350 17 87 95 63 92 105 76 93 131 108 108 134 251 289 283 253 307 290 242 208 192 329 333 339 295 218 191 184 173 168 170 170
326 324 322 319 316 315 315 315 317 319 319 315 313 316 317 315 315 318 308 304 311 312 316 309 310 320 318 291 275 281 70 56 39 73 101 152 161 169 192 217 211 225 256 269 283 291 312 331 338 327 311 322 317 315 334 355 13 70 106 79 56 54 66 64 86 95 165 158 182 253 274 231 292 289 248 159 163 167 355 331 305 261 206 182 177 172 166 173
326 322 319 317 316 316 317 318 321 320 317 313 314 318 318 317 317 317 303 302 310 305 310 304 309 320 309 286 272 283 58 18 346 74 146 165 170 182 205 231 232 242 261 277 284 294 310 315 327 318 303 332 323 310 332 35 8 336 100 93 72 34 81 72 122 140 204 216 201 241 268 243 204 240 239 173 170 165 148 158 259 274 234 184 176 174 165 175
324 320 318 316 317 318 319 320 321 317 312 311 315 319 319 316 312 304 293 295 301 297 301 298 309 327 312 279 254 274 25 308 248 51 176 174 188 198 208 232 247 258 272 287 290 325 335 320 319 300 303 327 309 310 4 353 287 288 46 58 195 194 144 132 119 145 185 221 202 227 252 235 213 218 223 198 182 151 144 170 161 275 271 204 175 174 169 174
324 321 318 317 317 319 320 319 316 311 307 310 317 319 315 315 304 285 284 290 291 287 288 291 304 313 296 276 243 304 349 265 211 239 219 199 203 204 218 237 246 259 279 293 300 332 334 312 308 299 303 303 295 326 328 271 263 228 32 290 237 211 184 152 125 155 182 182 170 218 253 224 208 209 207 191 182 160 157 223 139 51 287 241 184 173 174 171
323 321 319 319 319 318 318 314 310 306 306 314 318 314 311 307 284 271 275 270 267 271 270 282 299 299 272 270 4 60 246 242 227 215 214 214 213 204 218 241 252 259 272 285 291 303 303 299 298 294 286 275 281 309 290 269 265 219 158 294 299 322 171 157 154 167 173 150 175 228 264 68 164 189 199 198 183 189 189 206 193 136 267 253 195 173 183 172
323 322 319 318 318 317 316 311 308 307 312 318 314 308 301 276 259 256 256 252 255 260 268 279 262 249 268 249 187 18 228 217 225 215 206 208 213 213 217 230 246 255 268 284 284 285 289 293 288 282 287 288 284 275 275 284 275 249 204 167 271 301 133 151 168 178 177 174 191 226 278 359 245 187 194 202 185 194 203 187 205 144 278 271 222 179 186 177
323 322 319 318 317 315 313 309 309 312 316 316 305 291 265 242 237 242 247 236 246 252 268 283 225 217 278 303 135 164 199 201 214 205 199 208 221 230 211 218 251 257 259 268 272 276 279 280 279 278 286 293 289 279 280 272 251 273 310 200 221 253 244 159 179 194 177 162 191 217 271 312 250 200 186 199 195 199 212 188 166 118 346 295 272 206 182 181
325 322 319 316 314 313 310 307 311 315 315 308 291 273 254 248 228 219 309 249 266 266 257 278 265 229 261 310 190 194 183 179 192 189 193 218 239 267 205 221 247 250 249 253 255 259 263 264 269 269 261 255 263 280 285 279 306 11 314 242 239 262 281 178 169 194 176 167 197 206 236 285 262 194 180 198 204 201 214 197 164 152 125 294 287 260 201 184
326 322 317 315 314 310 305 305 310 311 304 291 271 253 261 260 228 231 289 285 268 262 257 262 278 274 241 258 242 162 149 142 173 193 194 215 241 273 254 244 255 257 256 252 239 241 244 243 261 269 266 259 245 252 276 299 336 324 297 298 295 293 298 298 125 164 182 200 222 198 215 259 258 211 188 202 210 200 207 207 170 141 130 210 272 283 255 202
325 320 317 313 309 305 302 304 307 301 273 163 85 5 310 272 259 251 245 235 198 241 275 201 217 289 99 165 108 108 118 136 169 206 200 204 228 245 250 257 274 273 270 263 218 214 228 232 247 258 262 264 251 272 317 341 350 324 319 315 307 304 301 318 75 139 188 251 268 217 219 241 236 222 206 207 210 200 201 206 179 140 134 196 237 288 292 252
322 318 314 308 305 302 300 300 294 271 192 142 75 307 270 260 247 209 206 220 223 255 292 174 204 276 79 118 105 122 134 159 184 212 208 201 218 238 241 248 255 247 260 278 240 193 223 253 250 262 274 279 281 308 340 349 351 326 313 301 295 294 293 297 307 145 148 277 294 279 265 256 233 221 214 210 206 200 202 206 195 158 149 181 207 198 262 279
320 316 310 305 305 300 299 294 270 227 186 158 94 268 283 351 327 352 198 223 220 233 260 236 243 292 357 81 112 163 168 184 196 202 192 188 214 228 202 219 249 240 234 264 282 214 225 267 261 263 279 281 285 313 337 329 321 308 300 294 292 297 297 290 274 108 129 204 283 288 281 283 289 260 215 201 206 209 207 207 205 179 160 163 194 204 206 261
318 312 306 305 303 299 298 285 246 202 189 189 247 249 290 2 346 321 319 260 219 212 234 248 256 256 176 260 251 217 220 194 181 177 166 181 212 218 184 212 248 257 235 226 268 273 235 257 274 281 296 293 297 324 323 306 299 291 287 288 290 291 285 269 175 159 187 216 273 282 281 293 310 300 217 189 203 214 214 213 212 191 163 153 181 207 216 215
315 307 302 301 300 297 285 262 214 194 196 211 243 252 292 344 335 315 301 279 226 188 206 208 220 191 169 226 206 211 240 206 164 160 159 205 212 212 237 248 265 284 267 208 229 282 271 285 344 4 338 326 325 319 305 293 284 277 272 276 282 285 297 314 181 187 198 226 237 251 273 270 282 283 178 184 211 203 215 217 207 194 166 159 186 194 209 228
309 299 297 293 291 282 256 209 191 208 209 222 245 260 290 320 324 326 305 275 215 175 198 193 225 214 159 188 172 201 248 262 154 153 153 212 211 190 233 253 270 265 261 248 254 282 281 312 11 2 329 318 310 303 298 290 281 283 278 276 282 284 301 318 279 229 197 245 221 213 252 277 298 323 128 168 267 204 224 226 201 190 168 160 178 191 198 208
301 291 286 276 262 198 192 182 203 219 209 229 249 259 277 301 324 335 318 276 194 166 192 187 227 234 125 147 182 215 260 332 108 136 154 216 240 264 267 243 257 268 305 339 307 276 280 344 19 339 327 314 298 292 285 286 292 289 280 275 282 287 298 308 301 298 264 268 229 222 277 304 300 158 127 172 232 201 222 236 208 187 177 168 171 187 198 189
289 274 252 229 212 177 179 184 210 216 213 233 250 256 274 305 329 326 304 264 179 152 174 179 192 167 147 186 193 226 252 186 119 127 163 223 261 289 293 245 226 289 344 328 284 267 280 335 7 314 318 307 293 281 267 271 277 283 314 312 305 313 319 324 328 325 284 292 322 290 281 293 282 150 138 171 192 194 220 234 220 193 186 190 184 187 192 190
270 250 226 211 187 165 182 327 301 241 224 227 260 315 316 322 323 308 277 251 175 161 167 164 165 164 173 186 193 232 251 136 134 149 172 209 249 254 265 272 255 246 329 295 278 218 273 294 290 265 287 287 281 291 314 325 297 295 338 326 314 325 327 321 318 310 304 300 283 273 291 317 300 124 134 168 178 191 212 217 221 202 193 201 195 192 195 195
252 232 217 214 205 204 245 309 315 290 307 28 350 311 326 309 297 277 261 267 134 158 165 142 126 163 199 183 203 261 339 140 188 171 163 177 240 253 248 278 297 298 282 285 294 98 205 282 326 334 309 294 297 325 346 338 309 303 322 314 311 323 319 308 303 299 293 283 277 298 322 310 291 37 127 192 202 214 213 206 210 205 206 210 195 193 203 203
239 219 211 216 224 233 257 287 290 288 322 351 324 314 319 289 281 254 264 277 145 169 153 131 146 181 206 196 199 248 244 200 214 142 151 172 222 250 274 292 303 302 282 268 278 280 253 245 14 330 302 298 319 327 327 314 303 308 311 303 299 302 295 284 280 284 288 288 304 315 307 295 291 281 205 210 227 254 220 180 188 195 210 220 204 199 203 209
223 210 206 206 212 246 265 256 259 282 311 318 314 309 288 273 265 241 249 226 161 161 136 151 181 175 192 209 200 212 229 208 179 168 187 207 211 215 263 279 275 286 276 257 255 254 259 242 205 259 270 308 320 310 293 285 286 297 297 290 280 272 272 271 267 286 300 296 292 291 292 294 289 274 245 210 218 269 134 144 182 192 196 211 207 201 196 204
213 206 204 202 198 229 251 238 284 311 307 310 312 298 275 251 248 260 260 122 157 161 161 170 165 165 188 226 219 193 216 216 182 187 202 212 212 205 235 244 230 254 267 264 252 234 240 239 209 193 201 290 301 279 261 251 249 266 274 280 284 266 257 258 256 275 297 293 291 290 289 281 279 280 281 283 183 192 139 138 164 168 178 205 211 208 195 194
206 205 208 210 209 221 237 285 339 331 317 312 303 284 263 221 227 253 230 173 180 171 187 167 159 189 200 225 236 189 207 226 184 195 221 228 224 212 229 237 245 281 284 299 301 262 259 251 174 163 174 208 301 297 290 266 249 258 257 264 282 283 284 288 288 298 291 284 288 294 295 285 282 289 299 315 101 138 173 71 85 116 158 176 193 209 202 195
204 208 216 220 228 234 244 277 305 316 320 309 293 266 255 242 231 245 227 180 119 99 148 141 155 218 209 224 237 184 193 254 180 195 217 238 259 249 231 223 310 309 300 319 314 303 299 276 158 161 156 134 305 310 321 330 325 305 293 301 312 317 321 319 309 305 292 279 281 295 303 294 284 294 301 302 190 132 100 60 70 78 106 138 178 199 197 199
204 214 224 231 242 245 247 257 269 303 314 301 279 239 234 244 234 251 268 123 104 112 132 107 184 220 220 251 252 149 210 212 185 215 210 211 250 270 241 184 78 313 287 303 308 309 317 313 160 166 100 132 274 299 319 332 321 304 304 305 302 314 316 312 314 309 308 306 292 291 294 289 307 337 304 301 349 88 78 61 53 43 41 40 242 219 204 203
210 221 235 244 248 248 248 253 257 280 295 289 264 236 224 241 250 349 340 80 110 157 149 123 279 247 219 225 155 137 243 203 177 234 236 225 241 266 350 94 86 356 313 314 332 339 323 341 81 58 320 257 271 301 353 335 303 299 311 290 285 330 338 315 306 300 307 314 301 285 282 291 312 270 258 262 81 77 64 51 38 27 24 7 330 289 233 212
220 224 240 242 244 247 241 244 246 249 267 273 246 228 222 245 303 25 352 2 33 352 100 160 230 251 228 193 162 168 220 200 186 239 220 230 252 275 36 59 66 8 337 336 327 325 307 317 28 349 293 285 290 354 11 316 293 318 318 285 303 336 338 312 300 297 301 300 295 293 287 293 271 212 253 303 65 60 44 33 21 9 14 25 5 325 295 260
206 201 234 236 230 231 218 213 218 222 245 265 249 247 258 281 360 23 350 350 8 346 323 272 202 251 280 225 162 152 176 209 215 252 236 202 228 314 42 56 42 3 345 341 300 309 312 297 317 316 302 321 349 331 273 262 251 272 298 307 320 317 297 295 308 310 306 292 295 305 297 308 305 294 23 20 30 44 38 17 2 7 16 24 9 330 312 299
246 235 244 229 202 196 189 189 202 215 238 255 249 258 270 300 21 15 354 339 316 307 297 282 181 35 285 279 125 136 166 207 176 217 255 174 150 357 354 17 78 64 347 329 293 306 321 294 301 310 304 317 333 271 259 248 229 220 243 299 311 290 285 316 312 305 305 292 295 304 300 347 9 359 18 23 24 30 29 15 12 15 17 22 10 335 318 315
273 268 244 184 166 170 173 180 199 221 238 237 240 248 245 225 59 19 351 321 300 299 290 298 352 182 254 303 11 114 182 269 140 235 278 148 139 22 20 350 50 83 22 335 305 308 314 297 298 301 299 311 326 273 275 285 269 236 242 246 235 268 301 307 301 300 301 294 299 305 303 18 40 11 12 18 18 15 8 6 15 15 19 32 25 341 320 318
259 265 174 150 158 161 164 178 205 229 232 232 248 270 335 137 93 43 348 329 305 290 308 327 338 329 296 305 306 304 307 312 308 296 308 81 153 126 65 33 328 332 5 341 295 291 282 277 287 291 296 302 286 275 301 319 331 331 297 282 290 301 282 273 283 285 278 283 295 299 298 50 42 7 20 21 10 4 358 353 360 7 17 38 47 357 317 309
254 261 149 149 159 154 161 192 215 224 228 237 253 261 37 6 40 70 13 330 300 278 317 315 304 319 330 311 308 342 338 296 280 283 285 304 104 74 34 38 11 335 346 319 290 311 311 283 296 300 298 297 293 308 319 313 316 323 307 307 315 309 302 293 286 290 294 297 301 294 292 54 37 2 20 23 9 3 357 349 346 351 10 41 55 9 318 310
263 262 143 154 165 163 177 215 214 222 231 236 262 200 87 337 332 24 48 238 264 269 290 293 292 304 311 324 2 360 320 288 283 296 333 342 37 67 46 25 8 338 324 291 294 8 355 301 294 294 288 292 290 292 296 294 308 318 291 287 298 296 302 291 286 319 336 312 305 294 290 38 41 7 17 18 10 7 355 347 345 344 2 39 48 15 334 321
259 220 137 156 173 179 210 237 213 226 228 192 295 42 85 310 289 323 300 229 238 261 266 290 304 297 305 337 346 335 333 297 283 309 336 342 51 77 73 21 354 330 308 289 314 18 343 278 279 290 285 290 280 265 262 261 269 295 275 279 301 301 308 300 301 321 311 301 308 292 282 24 31 359 16 7 356 5 352 342 347 344 353 26 32 14 343 323
265 242 143 165 185 191 232 247 221 245 239 178 207 205 89 1 311 319 336 8 14 329 307 329 4 311 320 340 305 308 350 328 273 316 336 329 56 72 49 36 8 327 326 353 4 2 326 289 308 305 294 297 282 246 237 232 198 307 311 318 308 305 313 310 309 308 296 322 345 308 289 348 338 304 338 353 346 356 352 343 352 352 351 11 15 355 346 333
281 247 142 164 193 197 241 261 276 291 274 193 195 216 191 195 227 326 329 339 344 329 321 336 4 323 299 295 281 288 299 284 275 345 330 298 142 107 68 37 352 309 3 25 3 336 308 306 315 304 293 302 308 332 341 317 312 313 306 302 297 301 311 310 304 294 295 353 1 301 286 308 313 304 322 351 345 340 349 351 351 352 352 4 4 337 349 344
291 258 154 161 191 206 246 255 260 280 283 176 192 216 212 203 147 147 283 282 256 299 304 315 333 286 261 270 275 259 234 220 270 319 311 298 308 107 112 50 287 296 50 25 340 310 291 285 278 271 272 280 287 298 299 292 293 294 293 301 306 308 317 327 321 308 317 338 327 294 284 301 308 310 319 342 339 328 345 352 342 349 354 356 355 330 337 354
275 286 252 163 186 209 230 241 242 262 309 41 213 185 204 230 132 141 207 275 13 300 292 295 294 279 274 332 293 263 202 178 282 306 317 313 319 341 149 234 271 75 70 332 279 264 274 268 261 262 263 265 272 279 281 280 282 286 292 303 300 295 321 9 357 353 360 312 299 330 332 295 299 305 309 336 351 338 348 347 334 347 352 345 350 332 341 3
271 300 303 220 214 208 212 242 243 242 239 199 182 58 241 258 241 163 187 155 31 264 250 221 233 271 318 358 315 299 108 246 260 287 343 334 322 327 317 270 174 124 152 259 225 209 259 266 275 280 279 283 285 286 289 287 287 292 297 294 285 285 27 56 357 350 1 299 295 318 305 287 300 316 322 351 5 346 344 339 329 340 343 339 349 340 350 9
322 323 333 326 279 250 297 314 267 250 245 188 157 322 265 257 260 238 153 162 241 174 249 285 259 121 1 359 309 305 351 315 273 97 24 335 312 313 310 285 190 144 219 274 231 222 269 272 285 290 291 292 289 289 290 286 283 286 280 272 275 281 70 82 354 345 338 295 292 301 295 295 332 355 347 352 353 337 336 340 334 336 336 335 345 350 357 0
340 317 339 328 303 289 296 308 303 295 298 146 207 262 261 250 265 285 97 236 271 114 118 285 276 125 47 11 301 294 348 7 332 350 357 331 310 307 316 304 304 137 292 305 314 279 259 280 299 298 289 285 283 280 278 273 269 273 283 297 305 297 289 39 6 3 343 303 304 305 300 305 1 5 344 337 335 333 342 352 346 337 337 342 349 359 359 344
333 317 332 312 303 324 293 266 284 278 243 204 213 231 231 235 293 332 88 162 287 323 353 320 347 111 171 258 267 291 53 61 325 321 325 315 308 317 323 307 312 312 304 305 297 264 243 275 295 292 284 290 294 287 283 285 286 293 344 8 4 343 341 4 357 9 16 332 321 313 301 307 351 342 333 331 332 336 345 355 349 331 334 349 355 358 352 333
346 334 339 313 292 315 283 250 254 255 254 321 43 117 184 290 14 347 250 149 264 280 286 356 4 316 246 230 233 28 44 19 327 320 314 299 289 289 287 280 284 288 290 302 301 286 278 284 289 293 292 299 302 298 301 308 305 308 4 13 17 16 8 356 343 10 36 353 318 307 301 321 337 330 332 335 333 335 336 340 337 321 325 337 354 358 345 328
Height
805 804 803 802 801 801 799 799 798 797 796 796 795 794 793 792 791 791 791 790 790 788 787 786 784 784 782 781 780 778 775 773 771 769 767 764 763 763 764 765 765 765 765 765 765 765 763 760 759 760 760 762 765 767 769 771 774 779 787 794 798 800 796 791 790 786 785 783 778 773 771 778 776 764 754 758 768 770 773 774 770 769 766 769 774 777 779 782
804 804 802 802 801 800 799 798 797 797 796 795 794 793 792 792 791 790 789 789 789 787 787 785 784 783 781 781 779 777 775 772 770 766 763 762 762 763 764 764 765 765 764 765 764 762 763 763 761 760 763 766 766 767 773 772 771 779 785 792 797 793 787 783 782 780 781 782 778 773 772 776 777 769 759 773 789 779 781 783 775 777 773 771 775 779 781 782
804 803 802 801 800 799 799 797 797 796 795 794 793 792 792 791 790 789 789 788 787 787 786 784 783 781 781 780 778 778 775 771 769 763 760 760 761 762 762 764 765 764 764 764 762 760 763 767 764 761 766 771 768 769 774 771 770 774 781 796 793 783 782 778 777 778 778 777 780 780 774 775 774 770 768 779 790 781 783 785 780 783 780 775 775 777 780 781
803 802 801 800 800 799 798 797 796 795 794 794 792 792 791 790 790 789 788 787 786 786 785 784 783 781 780 779 778 778 774 774 769 760 759 760 760 761 762 763 763 764 763 762 761 758 759 764 763 760 768 776 769 765 770 769 771 774 782 795 787 779 783 778 775 775 774 773 781 784 781 785 782 778 781 781 789 789 782 779 780 782 778 774 773 775 778 780
802 802 800 800 799 798 797 796 795 794 794 792 792 791 790 789 789 788 787 787 786 785 784 783 782 780 779 778 779 776 777 784 770 756 760 759 759 760 760 762 763 763 762 762 759 755 755 759 762 765 770 775 775 773 771 760 763 779 783 784 779 779 784 777 772 773 772 774 781 786 787 792 789 788 790 785 790 790 777 772 774 775 772 771 771 773 776 778
802 801 800 799 798 797 796 795 794 794 793 791 791 790 789 788 787 787 786 785 785 785 784 782 781 780 778 777 778 775 781 784 763 755 760 757 759 759 759 762 762 762 762 762 756 752 753 756 767 775 773 773 778 777 770 754 758 783 784 774 775 777 780 775 771 773 773 778 786 787 784 784 788 789 788 785 783 776 767 765 768 769 767 767 768 770 775 778
801 800 799 798 797 796 795 795 794 792 792 791 790 789 788 787 786 786 785 785 785 784 783 782 780 779 777 776 776 775 778 772 755 756 759 756 759 758 759 761 761 762 761 760 755 751 751 757 768 770 771 777 776 767 764 758 756 778 783 773 774 775 774 772 770 772 773 779 783 779 778 781 787 788 784 782 776 767 763 761 763 764 764 766 767 769 773 776
800 800 798 797 796 795 795 794 793 792 791 790 789 788 787 786 786 785 784 785 784 783 783 781 780 779 777 776 775 775 773 763 754 757 757 756 758 757 760 760 760 762 759 758 752 748 750 757 762 759 767 775 769 761 758 761 763 774 780 771 772 774 769 769 770 772 773 778 778 776 781 783 781 780 782 780 772 766 763 762 762 763 765 767 765 767 771 773
800 799 797 797 796 795 794 793 792 791 790 789 788 787 786 785 785 785 784 784 783 783 782 781 780 778 779 777 775 778 769 756 756 757 756 757 757 757 759 758 760 760 757 755 748 747 751 756 756 754 763 763 759 758 752 764 772 770 772 767 769 772 766 768 771 772 774 775 776 781 785 782 775 775 779 773 768 768 765 765 766 766 768 766 764 765 769 772
800 798 797 796 795 794 793 792 791 790 789 788 787 786 786 785 784 784 784 783 783 783 781 781 780 778 780 776 778 782 764 753 758 757 757 758 757 758 758 757 758 757 755 751 746 747 748 752 750 746 754 755 754 754 750 761 766 758 763 766 767 769 766 767 771 772 773 773 775 782 786 781 774 779 783 771 765 768 769 770 769 771 770 765 764 763 765 770
799 797 797 795 794 794 792 792 791 790 789 787 787 786 785 784 784 784 783 783 782 782 782 781 779 779 779 777 781 778 759 755 758 756 758 758 757 758 757 757 755 755 753 748 747 745 746 747 744 746 755 756 754 754 749 751 753 752 758 768 769 767 768 767 771 774 774 776 774 777 784 781 777 783 782 770 763 766 771 773 772 777 772 762 764 762 763 767
798 797 795 794 794 793 792 792 790 789 788 787 787 786 785 784 784 784 783 783 782 782 781 780 780 780 779 778 776 767 756 757 758 756 758 756 757 757 755 756 755 754 752 748 746 744 746 746 744 755 757 753 757 760 753 745 747 751 756 775 777 770 775 771 769 772 774 778 771 773 789 787 782 782 772 764 763 764 770 773 773 779 775 764 762 762 763 765
797 796 795 794 793 792 792 791 789 789 787 787 786 785 785 784 783 783 782 782 782 781 781 780 780 779 782 778 764 757 758 758 757 757 757 756 756 755 755 756 754 754 752 750 748 746 749 748 747 754 750 753 760 754 748 742 744 754 761 774 778 779 785 774 768 771 774 777 767 776 798 793 780 775 766 761 762 766 772 774 774 777 780 772 762 762 763 764
796 795 794 793 792 792 791 790 789 788 787 787 785 785 784 783 784 783 782 782 781 781 781 780 781 780 783 774 757 756 758 757 758 757 756 756 754 755 755 755 754 754 752 751 751 749 750 747 747 750 747 750 750 743 746 746 747 758 768 776 780 789 790 772 766 771 777 776 766 779 799 791 778 772 764 759 760 767 772 775 776 778 784 778 764 763 764 762
795 794 793 793 792 791 790 789 788 787 787 786 785 784 783 783 783 782 782 782 781 782 780 780 780 779 781 770 755 756 758 756 757 755 755 755 753 753 753 754 753 752 752 752 751 750 749 747 750 756 752 743 742 752 759 757 755 757 775 792 789 788 786 772 765 767 777 776 766 780 795 786 777 770 762 758 759 766 771 774 776 777 781 781 768 762 764 762
795 794 793 792 791 790 790 788 787 787 786 785 785 784 783 783 783 782 783 781 781 781 780 781 778 778 783 770 755 756 757 755 754 754 754 753 752 750 750 752 752 751 752 751 751 749 748 749 751 753 754 751 753 761 764 766 765 761 780 801 794 787 784 776 768 760 766 774 771 779 788 783 773 765 759 757 758 764 769 771 775 777 779 783 776 763 761 763
794 793 792 792 791 790 789 788 787 786 786 785 784 784 783 783 782 783 782 782 783 781 780 780 774 777 777 763 757 759 753 752 753 752 753 753 752 750 750 752 751 750 749 748 749 748 748 751 754 754 754 758 758 760 772 781 778 773 785 793 785 778 774 775 775 761 758 772 776 776 781 778 767 759 757 755 756 761 766 769 773 778 779 785 785 771 762 762
793 792 792 791 790 789 788 787 787 786 786 785 784 785 784 783 783 783 783 782 782 781 783 779 776 786 781 762 758 757 750 752 753 752 754 753 752 751 752 750 748 748 751 752 751 750 753 753 757 763 761 759 756 761 778 779 774 777 781 781 777 770 765 769 771 761 758 767 771 776 780 772 762 757 756 754 753 759 763 764 769 776 779 782 784 778 769 762
793 792 791 790 789 788 788 787 786 786 785 785 785 785 784 784 784 782 782 783 783 784 784 778 776 783 778 761 753 751 749 752 753 753 753 752 753 752 751 750 748 752 761 764 758 752 755 759 765 773 772 764 755 755 763 759 759 768 768 771 775 772 765 759 758 752 752 764 767 770 774 767 761 758 755 751 748 755 761 760 765 773 777 776 777 778 777 770
792 791 790 789 789 788 787 786 786 786 786 786 786 786 786 784 784 784 781 780 777 772 769 766 764 764 761 754 749 751 753 753 754 753 752 752 752 752 751 751 753 759 765 768 762 749 751 769 776 773 768 760 751 746 749 750 754 762 765 769 768 768 765 753 749 745 744 764 768 760 763 759 757 755 749 746 746 752 758 760 763 769 774 775 774 776 779 777
791 790 789 788 788 787 787 786 786 786 786 786 786 787 783 779 783 785 779 774 766 760 761 757 754 756 754 751 749 749 753 756 754 749 751 750 750 757 758 756 765 771 765 761 758 748 754 776 774 760 755 750 747 744 747 753 757 762 766 769 766 765 762 747 745 744 741 761 768 756 759 757 750 748 743 742 748 752 753 757 761 763 769 772 772 774 775 776
790 790 788 788 787 786 786 786 786 786 786 786 786 783 775 772 777 776 774 776 764 754 758 755 753 755 750 749 748 747 753 759 758 750 749 749 752 762 761 759 769 770 758 756 763 763 768 773 759 746 744 744 746 746 751 757 759 763 764 768 770 762 754 743 739 740 740 756 765 757 760 759 748 744 743 743 748 750 747 750 754 756 764 770 770 771 770 771
790 788 788 788 786 787 786 785 786 786 786 786 784 780 774 772 773 770 772 779 770 756 755 757 757 756 753 752 747 748 756 759 761 755 747 750 755 758 761 763 767 764 759 760 769 777 778 765 747 741 743 748 754 752 755 760 759 762 762 767 768 757 754 754 743 738 739 746 755 756 759 757 748 744 745 745 745 746 745 745 747 749 758 765 764 765 767 769
789 788 788 787 786 787 785 786 787 785 785 784 782 777 774 774 773 772 773 776 773 760 752 752 751 750 752 750 745 751 757 750 753 754 746 751 755 752 757 761 764 767 761 757 763 773 772 754 741 745 749 753 760 759 759 764 764 759 755 759 761 752 752 754 743 737 740 741 742 752 763 760 750 753 758 752 748 750 748 747 748 747 750 757 760 761 763 766
788 788 787 786 787 786 786 787 785 783 784 783 780 776 774 775 772 773 777 781 779 764 753 751 750 748 745 746 747 747 752 749 746 747 743 746 751 753 756 752 759 770 762 757 764 769 763 746 742 753 756 755 762 763 759 763 768 763 753 748 749 747 746 744 738 740 756 761 745 749 777 775 751 755 766 762 758 757 752 750 750 749 749 753 757 759 759 761
787 787 786 787 787 786 787 786 782 783 783 780 776 774 774 775 773 773 780 790 787 771 763 758 757 754 746 748 747 743 759 760 742 739 742 744 744 749 761 755 753 764 760 757 761 762 755 744 745 757 761 760 762 762 753 752 767 770 751 739 739 741 744 745 744 751 769 771 747 741 770 777 755 754 764 763 763 760 754 752 749 748 750 751 753 755 755 757
787 786 787 787 786 787 787 783 781 781 779 776 774 775 775 774 774 774 785 803 794 771 765 761 756 755 749 746 742 751 776 765 742 742 741 744 743 742 762 764 755 759 752 757 769 762 752 750 751 754 759 763 763 760 748 743 764 768 745 738 743 744 749 751 751 758 763 759 748 737 749 771 769 760 755 755 761 762 757 754 749 746 749 749 750 752 752 754
786 786 787 787 786 788 786 784 784 779 776 776 774 776 775 774 774 775 797 820 796 760 757 757 749 746 743 742 742 754 765 755 758 757 735 740 747 745 763 764 758 759 747 761 782 763 749 756 757 755 762 766 760 754 745 745 761 758 740 741 744 745 751 751 754 760 755 758 765 749 745 775 780 759 750 752 758 762 756 753 750 748 748 748 749 751 751 751
785 786 786 787 787 787 786 787 785 780 778 776 776 778 774 774 775 781 807 819 784 753 752 752 750 749 747 748 751 754 751 751 764 756 735 743 746 746 762 758 753 760 749 756 773 759 746 747 748 755 765 764 755 749 744 749 757 747 738 743 743 745 748 748 755 759 757 769 780 762 754 779 784 762 755 758 759 757 751 750 750 748 748 748 748 750 750 749
785 786 786 787 787 787 787 786 782 780 779 777 778 777 773 776 782 800 820 805 773 757 752 752 756 754 755 761 762 758 754 753 753 748 746 749 745 745 753 747 749 760 756 753 759 753 742 736 738 749 756 752 749 747 743 746 747 742 742 747 748 748 745 748 751 753 772 787 780 764 756 774 788 769 752 753 751 745 745 752 751 745 746 746 744 745 746 747
784 785 786 786 786 786 786 783 780 780 779 779 779 774 776 783 791 814 815 779 764 765 755 756 759 753 759 768 767 760 757 754 749 754 760 756 754 756 757 756 759 766 767 761 756 749 742 741 740 741 742 743 748 749 742 737 737 743 749 752 759 757 749 756 756 759 792 801 775 757 751 767 788 773 746 738 735 732 739 746 746 745 747 745 742 742 743 745
784 785 785 785 785 785 784 781 780 780 779 779 778 774 784 798 802 809 791 763 770 773 757 759 759 754 759 762 762 758 757 756 751 755 763 762 763 761 762 765 765 776 785 772 762 756 747 740 736 736 736 739 751 757 747 738 738 747 751 756 772 773 766 776 778 776 794 793 768 754 753 766 776 759 740 735 731 730 733 736 740 745 747 745 743 742 740 741
784 784 785 785 785 784 783 782 780 781 780 778 778 777 790 811 808 788 769 764 773 764 750 754 755 753 758 761 761 755 756 761 754 754 757 758 763 759 753 751 753 773 786 775 770 769 760 743 733 742 745 739 749 764 765 757 752 755 755 761 778 785 792 802 795 787 790 780 760 751 758 771 769 750 735 731 727 726 728 733 738 740 742 743 741 739 738 738
784 784 785 784 784 783 781 782 781 781 780 778 781 786 800 814 796 767 761 762 759 752 750 755 755 757 760 763 760 753 760 765 754 755 760 760 769 766 753 750 752 762 770 774 774 772 779 770 746 747 753 748 749 754 757 759 760 756 747 755 771 777 791 804 797 793 789 774 759 757 767 776 773 757 735 724 722 721 728 735 737 739 740 739 737 735 736 735
784 784 785 783 783 781 780 781 780 782 782 780 785 795 806 805 781 767 767 757 751 754 753 753 758 766 766 761 757 751 759 765 755 757 764 764 769 766 757 758 760 761 769 782 780 770 783 779 749 740 743 743 748 742 739 754 767 755 741 755 766 758 767 784 785 780 778 778 772 765 766 760 751 743 726 721 726 725 732 739 741 745 743 740 740 736 733 732
784 784 784 782 781 779 779 781 780 782 782 783 794 800 795 781 767 768 766 753 755 758 758 761 764 771 771 762 762 758 754 759 761 763 765 763 762 760 759 760 759 763 770 782 786 780 787 779 749 743 743 735 740 741 739 756 768 759 756 766 756 739 752 778 783 769 771 791 784 765 767 756 743 742 730 727 736 738 743 749 748 749 745 744 747 742 738 735
785 784 783 779 778 779 779 779 780 782 781 786 799 796 778 762 755 758 757 753 755 755 764 775 769 769 773 765 764 764 759 760 763 767 768 765 764 760 760 760 759 763 765 773 782 777 783 784 756 748 755 739 729 738 741 741 750 764 771 762 745 742 750 767 787 787 789 802 787 767 774 771 765 767 753 746 754 756 758 760 757 753 748 748 749 747 745 741
784 783 779 775 775 776 777 779 780 779 781 790 799 790 772 762 755 754 755 755 755 757 769 777 768 766 771 768 764 760 762 768 767 769 769 767 770 765 761 764 761 762 761 766 777 770 774 791 770 749 756 744 728 743 754 738 731 747 755 746 751 772 774 772 789 801 804 808 794 775 773 777 785 785 770 765 766 764 762 760 761 758 753 753 754 752 749 744
784 783 778 771 772 774 776 779 777 778 786 794 796 782 766 760 756 753 755 756 758 763 771 770 764 766 767 766 767 761 762 769 767 769 770 770 775 768 762 766 764 762 760 763 775 772 770 792 789 758 748 747 742 754 767 755 734 733 741 740 746 764 774 776 780 787 798 807 802 790 785 790 793 782 774 775 770 767 767 761 760 760 757 759 762 759 754 751
783 784 777 768 771 774 774 776 777 782 790 790 784 772 759 757 757 755 754 756 760 764 770 769 766 769 768 763 765 763 763 768 768 770 771 767 772 771 764 767 769 764 761 763 771 771 769 786 795 771 751 756 762 758 758 760 753 751 757 756 753 756 761 768 770 769 781 796 802 805 805 801 788 773 772 776 771 768 768 763 762 761 760 763 767 765 760 756
781 785 778 767 771 773 772 780 783 783 786 782 773 766 762 760 759 757 756 756 759 758 762 769 768 769 771 768 767 766 767 771 769 770 771 764 769 778 771 767 771 770 769 772 772 772 775 782 790 784 772 772 768 750 744 750 752 758 764 763 763 763 766 781 785 771 767 781 791 799 807 804 788 775 772 773 771 769 766 766 767 765 764 767 770 769 761 757
782 786 775 766 771 771 773 783 781 775 777 775 766 761 762 762 761 762 760 758 761 758 758 766 768 768 770 770 770 771 772 775 772 770 772 767 769 779 774 766 768 770 775 780 774 771 776 782 790 791 781 774 762 746 743 745 744 752 759 757 760 762 768 787 795 782 776 781 779 782 799 804 790 776 774 774 772 770 768 768 770 770 768 769 772 771 763 758
782 780 769 766 769 767 777 787 779 771 769 763 757 756 758 762 763 764 762 761 764 764 764 767 768 770 771 770 772 774 775 778 776 771 773 772 771 774 771 767 770 771 774 780 777 774 779 785 794 793 780 767 754 742 739 739 744 758 758 752 757 760 761 769 773 774 781 785 782 790 806 808 791 774 774 776 772 770 770 768 770 772 770 771 774 773 767 760
776 770 765 768 768 767 781 789 780 773 765 757 759 761 760 763 766 767 767 767 767 768 770 770 768 771 772 770 773 775 777 783 782 774 774 777 775 770 767 768 773 774 777 782 781 781 786 790 796 803 803 791 772 761 758 752 754 764 761 755 758 757 757 763 764 770 784 787 790 804 810 803 788 774 772 774 772 771 770 767 768 771 771 774 775 772 768 763
774 769 764 766 765 768 778 778 774 775 765 760 768 768 766 767 766 767 770 770 767 769 773 772 768 770 770 770 775 775 774 782 785 778 776 778 774 768 768 772 774 775 777 779 777 780 790 794 796 809 821 818 804 794 788 777 768 767 764 760 759 756 760 769 772 780 794 794 794 804 806 793 781 775 773 775 777 776 772 770 769 769 771 773 773 771 769 767
779 777 772 769 765 766 770 764 766 772 763 763 772 770 770 773 768 765 769 771 769 768 772 772 769 771 773 774 780 781 774 776 780 780 780 779 774 770 770 772 773 774 776 778 777 781 792 795 793 801 809 808 802 793 782 776 776 775 770 765 763 761 762 770 781 791 799 801 800 799 799 796 787 781 777 777 781 781 776 774 772 769 769 770 769 769 768 767
780 779 772 772 773 771 770 763 762 764 759 763 772 770 770 774 772 771 771 770 771 770 773 774 772 776 779 779 783 783 777 778 781 782 783 781 776 771 767 768 771 775 777 778 777 783 796 798 791 791 792 787 784 778 769 768 774 774 770 769 767 764 766 776 789 796 799 808 808 794 792 801 795 782 777 777 782 784 779 777 776 772 770 769 767 766 764 764
778 775 761 761 772 774 772 766 760 759 759 763 768 770 773 775 775 777 775 771 770 771 776 779 777 777 778 781 786 785 783 787 787 785 786 785 781 779 775 770 771 774 777 777 774 780 795 799 788 785 786 779 773 771 767 767 769 768 769 772 767 764 773 784 789 789 793 805 806 793 791 797 790 781 779 778 782 785 781 779 778 774 772 770 768 766 762 762
776 777 762 757 765 767 764 760 756 757 761 764 769 773 776 778 777 772 770 774 776 772 776 784 782 777 777 779 785 789 789 793 794 790 789 790 787 787 787 780 773 771 774 776 774 775 788 795 786 784 788 781 775 772 768 767 770 769 767 766 760 760 771 782 785 784 788 794 793 789 790 791 787 785 783 780 780 781 779 779 779 776 774 771 768 766 761 762
784 784 777 771 769 763 760 759 759 765 767 769 775 775 771 776 777 769 767 777 783 778 777 783 781 777 780 782 785 789 786 789 795 792 789 792 791 788 789 787 779 774 775 779 778 776 787 794 785 784 791 786 776 770 767 766 767 767 766 761 757 758 764 774 781 784 789 793 789 788 792 792 787 784 782 780 778 777 778 780 780 778 774 771 768 765 762 764
787 782 779 782 781 771 766 764 764 771 773 771 774 773 771 774 774 772 771 772 776 779 778 779 779 777 780 783 785 785 781 781 789 786 782 787 788 784 785 782 780 783 782 782 781 779 786 792 785 786 797 792 776 770 768 763 758 764 774 775 771 771 773 777 781 785 793 799 798 799 800 796 789 785 783 782 779 779 782 782 780 778 775 772 769 765 764 766
788 782 776 782 786 777 771 769 768 773 775 769 767 770 773 773 770 773 780 774 770 773 773 775 780 781 783 785 784 782 778 778 781 779 776 778 777 776 778 775 776 783 785 785 785 781 784 791 789 791 801 796 780 772 770 768 773 784 789 787 784 784 785 784 783 786 793 799 803 806 801 792 788 786 785 785 784 784 784 781 780 779 775 772 770 768 768 769